小惑星A/2025 A1

A/2025 A1

English version
Home page
Updated on January 10, 2025

---------------------------------------------------------------------

・ プロフィール

発見日 2025年1月2日
発見光度 20.50等
発見者 Mt. Lemmon Survey

・ 軌道要素

Epoch 2024 Oct. 17.0 TT = JDT 2460600.5                                         
T 2027 Mar. 12.44632 TT                                 Veres                   
q   5.3549340            (2000.0)            P               Q                  
z  -0.0001094      Peri.   67.91172     -0.83232109     -0.12575489             
 +/-0.0006414      Node   101.32982     -0.00407177     -0.97251069             
e   1.0005857      Incl.   33.40608     +0.55427883     -0.19598130             
H   11.3                                                                        
From 49 observations 2024 Oct. 28-2025 Jan. 4, mean residual 0".2.              

・ 光度変化

        H = 11.3  G = 0.15

---------------------------------------------------------------------

軌道要素はM.P.E.C. 2025-A108に掲載されたものです。
光度グラフはComet for Windowsで作成したものです。

---------------------------------------------------------------------

Copyright(C) Seiichi Yoshida (comet@aerith.net). All rights reserved.